Time,TemperatureF,DewpointF,PressureIn,WindDirection,WindDirectionDegrees,WindSpeedMPH,WindSpeedGustMPH,Humidity,HourlyPrecipIn,Conditions,Clouds,dailyrainin,SoftwareType,DateUTC
2013-02-13 00:00:00,44.0,43.0,-100.00,WSW,243,5.0,-999.0,96,0.00,,,-99.99,,2013-02-13 08:00:00,
2013-02-13 00:22:00,44.0,43.0,-100.00,WSW,243,5.0,-999.0,96,0.00,,,-99.99,,2013-02-13 08:22:00,
2013-02-13 00:32:00,44.0,43.0,-100.00,WSW,243,5.0,-999.0,96,0.00,,,-99.99,,2013-02-13 08:32:00,
2013-02-13 00:43:00,44.0,43.0,-100.00,WSW,243,5.0,-999.0,96,0.00,,,-99.99,,2013-02-13 08:43:00,
2013-02-13 00:52:00,44.0,43.0,-100.00,WSW,243,5.0,-999.0,96,0.00,,,-99.99,,2013-02-13 08:52:00,
2013-02-13 01:00:00,43.0,42.0,-100.00,WNW,282,5.0,-999.0,96,0.00,,,-99.99,,2013-02-13 09:00:00,
2013-02-13 01:21:00,43.0,42.0,-100.00,WNW,282,5.0,-999.0,96,0.00,,,-99.99,,2013-02-13 09:21:00,
2013-02-13 01:32:00,43.0,42.0,-100.00,WNW,282,5.0,-999.0,96,0.00,,,-99.99,,2013-02-13 09:32:00,
2013-02-13 01:42:00,43.0,42.0,-100.00,WNW,282,5.0,-999.0,96,0.00,,,-99.99,,2013-02-13 09:42:00,
2013-02-13 01:52:00,43.0,42.0,-100.00,WNW,282,5.0,-999.0,96,0.00,,,-99.99,,2013-02-13 09:52:00,
2013-02-13 02:00:00,42.0,41.0,-100.00,WSW,242,4.0,-999.0,96,0.00,,,-99.99,,2013-02-13 10:00:00,
2013-02-13 02:22:00,42.0,41.0,-100.00,WSW,242,4.0,-999.0,96,0.00,,,-99.99,,2013-02-13 10:22:00,
2013-02-13 02:32:00,42.0,41.0,-100.00,WSW,242,4.0,-999.0,96,0.00,,,-99.99,,2013-02-13 10:32:00,
2013-02-13 02:42:00,42.0,41.0,-100.00,WSW,242,4.0,-999.0,96,0.00,,,-99.99,,2013-02-13 10:42:00,
2013-02-13 02:52:00,42.0,41.0,-100.00,WSW,242,4.0,-999.0,96,0.00,,,-99.99,,2013-02-13 10:52:00,
2013-02-13 03:00:00,42.0,41.0,-100.00,SW,235,3.0,-999.0,96,0.00,,,-99.99,,2013-02-13 11:00:00,
2013-02-13 03:22:00,42.0,41.0,-100.00,SW,235,3.0,-999.0,96,0.00,,,-99.99,,2013-02-13 11:22:00,
2013-02-13 03:32:00,42.0,41.0,-100.00,SW,235,3.0,-999.0,96,0.00,,,-99.99,,2013-02-13 11:32:00,
2013-02-13 03:42:00,42.0,41.0,-100.00,SW,235,3.0,-999.0,96,0.00,,,-99.99,,2013-02-13 11:42:00,
2013-02-13 03:52:00,42.0,41.0,-100.00,SW,235,3.0,-999.0,96,0.00,,,-99.99,,2013-02-13 11:52:00,
2013-02-13 04:00:00,41.0,40.0,-100.00,SSW,208,3.0,-999.0,96,0.00,,,-99.99,,2013-02-13 12:00:00,
2013-02-13 04:22:00,41.0,40.0,-100.00,SSW,208,3.0,-999.0,96,0.00,,,-99.99,,2013-02-13 12:22:00,
2013-02-13 04:32:00,41.0,40.0,-100.00,SSW,208,3.0,-999.0,96,0.00,,,-99.99,,2013-02-13 12:32:00,
2013-02-13 04:42:00,41.0,40.0,-100.00,SSW,208,3.0,-999.0,96,0.00,,,-99.99,,2013-02-13 12:42:00,
2013-02-13 04:52:00,41.0,40.0,-100.00,SSW,208,3.0,-999.0,96,0.00,,,-99.99,,2013-02-13 12:52:00,
2013-02-13 05:00:00,39.0,38.0,-100.00,WSW,256,2.0,-999.0,97,0.00,,,-99.99,,2013-02-13 13:00:00,
2013-02-13 05:21:00,39.0,38.0,-100.00,WSW,256,2.0,-999.0,97,0.00,,,-99.99,,2013-02-13 13:21:00,
2013-02-13 05:32:00,39.0,38.0,-100.00,WSW,256,2.0,-999.0,97,0.00,,,-99.99,,2013-02-13 13:32:00,
2013-02-13 05:42:00,39.0,38.0,-100.00,WSW,256,2.0,-999.0,97,0.00,,,-99.99,,2013-02-13 13:42:00,
2013-02-13 05:52:00,39.0,38.0,-100.00,WSW,256,2.0,-999.0,97,0.00,,,-99.99,,2013-02-13 13:52:00,
2013-02-13 06:00:00,40.0,39.0,-100.00,South,182,1.0,-999.0,96,0.00,,,-99.99,,2013-02-13 14:00:00,
2013-02-13 06:22:00,40.0,39.0,-100.00,South,182,1.0,-999.0,96,0.00,,,-99.99,,2013-02-13 14:22:00,
2013-02-13 06:32:00,40.0,39.0,-100.00,South,182,1.0,-999.0,96,0.00,,,-99.99,,2013-02-13 14:32:00,
2013-02-13 06:42:00,40.0,39.0,-100.00,South,182,1.0,-999.0,96,0.00,,,-99.99,,2013-02-13 14:42:00,
2013-02-13 06:52:00,40.0,39.0,-100.00,South,182,1.0,-999.0,96,0.00,,,-99.99,,2013-02-13 14:52:00,
2013-02-13 07:00:00,37.0,37.0,-100.00,NW,326,1.0,-999.0,97,0.00,,,-99.99,,2013-02-13 15:00:00,
2013-02-13 07:21:00,37.0,37.0,-100.00,NW,326,1.0,-999.0,97,0.00,,,-99.99,,2013-02-13 15:21:00,
2013-02-13 07:32:00,37.0,37.0,-100.00,NW,326,1.0,-999.0,97,0.00,,,-99.99,,2013-02-13 15:32:00,
2013-02-13 07:42:00,37.0,37.0,-100.00,NW,326,1.0,-999.0,97,0.00,,,-99.99,,2013-02-13 15:42:00,
2013-02-13 07:52:00,37.0,37.0,-100.00,NW,326,1.0,-999.0,97,0.00,,,-99.99,,2013-02-13 15:52:00,
2013-02-13 08:00:00,37.0,36.0,-100.00,North,359,4.0,-999.0,97,0.00,,,-99.99,,2013-02-13 16:00:00,
2013-02-13 08:21:00,37.0,36.0,-100.00,North,359,4.0,-999.0,97,0.00,,,-99.99,,2013-02-13 16:21:00,
2013-02-13 08:32:00,37.0,36.0,-100.00,North,359,4.0,-999.0,97,0.00,,,-99.99,,2013-02-13 16:32:00,
2013-02-13 08:42:00,37.0,36.0,-100.00,North,359,4.0,-999.0,97,0.00,,,-99.99,,2013-02-13 16:42:00,
2013-02-13 08:52:00,37.0,36.0,-100.00,North,359,4.0,-999.0,97,0.00,,,-99.99,,2013-02-13 16:52:00,
2013-02-13 09:00:00,40.0,39.0,-100.00,SSE,165,1.0,-999.0,96,0.00,,,-99.99,,2013-02-13 17:00:00,
2013-02-13 09:21:00,40.0,39.0,-100.00,SSE,165,1.0,-999.0,96,0.00,,,-99.99,,2013-02-13 17:21:00,
2013-02-13 09:32:00,40.0,39.0,-100.00,SSE,165,1.0,-999.0,96,0.00,,,-99.99,,2013-02-13 17:32:00,
2013-02-13 09:42:00,40.0,39.0,-100.00,SSE,165,1.0,-999.0,96,0.00,,,-99.99,,2013-02-13 17:42:00,
2013-02-13 09:52:00,40.0,39.0,-100.00,SSE,165,1.0,-999.0,96,0.00,,,-99.99,,2013-02-13 17:52:00,
2013-02-13 10:00:00,44.0,42.0,-100.00,NNE,26,9.0,-999.0,93,0.00,,,-99.99,,2013-02-13 18:00:00,
2013-02-13 10:23:00,44.0,42.0,-100.00,NNE,26,9.0,-999.0,93,0.00,,,-99.99,,2013-02-13 18:23:00,
2013-02-13 10:32:00,44.0,42.0,-100.00,NNE,26,9.0,-999.0,93,0.00,,,-99.99,,2013-02-13 18:32:00,
2013-02-13 10:42:00,44.0,42.0,-100.00,NNE,26,9.0,-999.0,93,0.00,,,-99.99,,2013-02-13 18:42:00,
2013-02-13 10:52:00,44.0,42.0,-100.00,NNE,26,9.0,-999.0,93,0.00,,,-99.99,,2013-02-13 18:52:00,
2013-02-13 11:00:00,50.0,42.0,-100.00,NNW,341,4.0,-999.0,72,0.00,,,-99.99,,2013-02-13 19:00:00,
2013-02-13 11:21:00,50.0,42.0,-100.00,NNW,341,4.0,-999.0,72,0.00,,,-99.99,,2013-02-13 19:21:00,
2013-02-13 11:32:00,50.0,42.0,-100.00,NNW,341,4.0,-999.0,72,0.00,,,-99.99,,2013-02-13 19:32:00,
2013-02-13 11:42:00,50.0,42.0,-100.00,NNW,341,4.0,-999.0,72,0.00,,,-99.99,,2013-02-13 19:42:00,
2013-02-13 11:52:00,50.0,42.0,-100.00,NNW,341,4.0,-999.0,72,0.00,,,-99.99,,2013-02-13 19:52:00,
2013-02-13 12:00:00,54.0,46.0,-100.00,SSW,193,1.0,-999.0,74,0.00,,,-99.99,,2013-02-13 20:00:00,
2013-02-13 12:22:00,54.0,46.0,-100.00,SSW,193,1.0,-999.0,74,0.00,,,-99.99,,2013-02-13 20:22:00,
2013-02-13 12:32:00,54.0,46.0,-100.00,SSW,193,1.0,-999.0,74,0.00,,,-99.99,,2013-02-13 20:32:00,
2013-02-13 12:42:00,54.0,46.0,-100.00,SSW,193,1.0,-999.0,74,0.00,,,-99.99,,2013-02-13 20:42:00,
2013-02-13 12:52:00,54.0,46.0,-100.00,SSW,193,1.0,-999.0,74,0.00,,,-99.99,,2013-02-13 20:52:00,
2013-02-13 13:00:00,59.0,44.0,-100.00,SW,220,7.0,-999.0,57,0.00,,,-99.99,,2013-02-13 21:00:00,
2013-02-13 13:21:00,59.0,44.0,-100.00,SW,220,7.0,-999.0,57,0.00,,,-99.99,,2013-02-13 21:21:00,
2013-02-13 13:32:00,59.0,44.0,-100.00,SW,220,7.0,-999.0,57,0.00,,,-99.99,,2013-02-13 21:32:00,
2013-02-13 13:42:00,59.0,44.0,-100.00,SW,220,7.0,-999.0,57,0.00,,,-99.99,,2013-02-13 21:42:00,
2013-02-13 13:52:00,59.0,44.0,-100.00,SW,220,7.0,-999.0,57,0.00,,,-99.99,,2013-02-13 21:52:00,
2013-02-13 14:00:00,59.0,43.0,-100.00,West,268,9.0,-999.0,56,0.00,,,-99.99,,2013-02-13 22:00:00,
2013-02-13 14:21:00,59.0,43.0,-100.00,West,268,9.0,-999.0,56,0.00,,,-99.99,,2013-02-13 22:21:00,
2013-02-13 14:32:00,59.0,43.0,-100.00,West,268,9.0,-999.0,56,0.00,,,-99.99,,2013-02-13 22:32:00,
2013-02-13 14:42:00,59.0,43.0,-100.00,West,268,9.0,-999.0,56,0.00,,,-99.99,,2013-02-13 22:42:00,
2013-02-13 14:52:00,59.0,43.0,-100.00,West,268,9.0,-999.0,56,0.00,,,-99.99,,2013-02-13 22:52:00,
2013-02-13 15:00:00,58.0,43.0,-100.00,SW,236,7.0,-999.0,56,0.00,,,-99.99,,2013-02-13 23:00:00,
2013-02-13 15:22:00,58.0,43.0,-100.00,SW,236,7.0,-999.0,56,0.00,,,-99.99,,2013-02-13 23:22:00,
2013-02-13 15:32:00,58.0,43.0,-100.00,SW,236,7.0,-999.0,56,0.00,,,-99.99,,2013-02-13 23:32:00,
2013-02-13 15:42:00,58.0,43.0,-100.00,SW,236,7.0,-999.0,56,0.00,,,-99.99,,2013-02-13 23:42:00,
2013-02-13 15:52:00,58.0,43.0,-100.00,SW,236,7.0,-999.0,56,0.00,,,-99.99,,2013-02-13 23:52:00,
2013-02-13 16:00:00,57.0,46.0,-100.00,WSW,247,14.0,-999.0,65,0.00,,,-99.99,,2013-02-14 00:00:00,
2013-02-13 16:22:00,57.0,46.0,-100.00,WSW,247,14.0,-999.0,65,0.00,,,-99.99,,2013-02-14 00:22:00,
2013-02-13 16:32:00,57.0,46.0,-100.00,WSW,247,14.0,-999.0,65,0.00,,,-99.99,,2013-02-14 00:32:00,
2013-02-13 16:42:00,57.0,46.0,-100.00,WSW,247,14.0,-999.0,65,0.00,,,-99.99,,2013-02-14 00:42:00,
2013-02-13 16:52:00,57.0,46.0,-100.00,WSW,247,14.0,-999.0,65,0.00,,,-99.99,,2013-02-14 00:52:00,
2013-02-13 17:00:00,52.0,43.0,-100.00,SW,234,10.0,-999.0,72,0.00,,,-99.99,,2013-02-14 01:00:00,
2013-02-13 17:21:00,52.0,43.0,-100.00,SW,234,10.0,-999.0,72,0.00,,,-99.99,,2013-02-14 01:21:00,
2013-02-13 17:32:00,52.0,43.0,-100.00,SW,234,10.0,-999.0,72,0.00,,,-99.99,,2013-02-14 01:32:00,
2013-02-13 17:42:00,52.0,43.0,-100.00,SW,234,10.0,-999.0,72,0.00,,,-99.99,,2013-02-14 01:42:00,
2013-02-13 17:51:00,52.0,43.0,-100.00,SW,234,10.0,-999.0,72,0.00,,,-99.99,,2013-02-14 01:51:00,
2013-02-13 18:00:00,50.0,44.0,-100.00,SW,230,11.0,-999.0,80,0.00,,,-99.99,,2013-02-14 02:00:00,
2013-02-13 18:21:00,50.0,44.0,-100.00,SW,230,11.0,-999.0,80,0.00,,,-99.99,,2013-02-14 02:21:00,
2013-02-13 18:32:00,50.0,44.0,-100.00,SW,230,11.0,-999.0,80,0.00,,,-99.99,,2013-02-14 02:32:00,
2013-02-13 18:42:00,50.0,44.0,-100.00,SW,230,11.0,-999.0,80,0.00,,,-99.99,,2013-02-14 02:42:00,
2013-02-13 18:51:00,50.0,44.0,-100.00,SW,230,11.0,-999.0,80,0.00,,,-99.99,,2013-02-14 02:51:00,
2013-02-13 19:00:00,47.0,45.0,-100.00,SW,226,9.0,-999.0,90,0.00,,,-99.99,,2013-02-14 03:00:00,
2013-02-13 19:22:00,47.0,45.0,-100.00,SW,226,9.0,-999.0,90,0.00,,,-99.99,,2013-02-14 03:22:00,
2013-02-13 19:32:00,47.0,45.0,-100.00,SW,226,9.0,-999.0,90,0.00,,,-99.99,,2013-02-14 03:32:00,
2013-02-13 19:42:00,47.0,45.0,-100.00,SW,226,9.0,-999.0,90,0.00,,,-99.99,,2013-02-14 03:42:00,
2013-02-13 19:52:00,47.0,45.0,-100.00,SW,226,9.0,-999.0,90,0.00,,,-99.99,,2013-02-14 03:52:00,
2013-02-13 20:00:00,47.0,45.0,-100.00,WSW,251,5.0,-999.0,93,0.00,,,-99.99,,2013-02-14 04:00:00,
2013-02-13 20:21:00,47.0,45.0,-100.00,WSW,251,5.0,-999.0,93,0.00,,,-99.99,,2013-02-14 04:21:00,
2013-02-13 20:32:00,47.0,45.0,-100.00,WSW,251,5.0,-999.0,93,0.00,,,-99.99,,2013-02-14 04:32:00,
2013-02-13 20:42:00,47.0,45.0,-100.00,WSW,251,5.0,-999.0,93,0.00,,,-99.99,,2013-02-14 04:42:00,
2013-02-13 20:51:00,47.0,45.0,-100.00,WSW,251,5.0,-999.0,93,0.00,,,-99.99,,2013-02-14 04:51:00,
2013-02-13 21:00:00,46.0,45.0,-100.00,WSW,249,6.0,-999.0,95,0.00,,,-99.99,,2013-02-14 05:00:00,
2013-02-13 21:22:00,46.0,45.0,-100.00,WSW,249,6.0,-999.0,95,0.00,,,-99.99,,2013-02-14 05:22:00,
2013-02-13 21:32:00,46.0,45.0,-100.00,WSW,249,6.0,-999.0,95,0.00,,,-99.99,,2013-02-14 05:32:00,
2013-02-13 21:42:00,46.0,45.0,-100.00,WSW,249,6.0,-999.0,95,0.00,,,-99.99,,2013-02-14 05:42:00,
2013-02-13 21:52:00,46.0,45.0,-100.00,WSW,249,6.0,-999.0,95,0.00,,,-99.99,,2013-02-14 05:52:00,
2013-02-13 22:00:00,45.0,44.0,-100.00,South,191,3.0,-999.0,95,0.00,,,-99.99,,2013-02-14 06:00:00,
2013-02-13 22:22:00,45.0,44.0,-100.00,South,191,3.0,-999.0,95,0.00,,,-99.99,,2013-02-14 06:22:00,
2013-02-13 22:32:00,45.0,44.0,-100.00,South,191,3.0,-999.0,95,0.00,,,-99.99,,2013-02-14 06:32:00,
2013-02-13 22:42:00,45.0,44.0,-100.00,South,191,3.0,-999.0,95,0.00,,,-99.99,,2013-02-14 06:42:00,
2013-02-13 22:52:00,45.0,44.0,-100.00,South,191,3.0,-999.0,95,0.00,,,-99.99,,2013-02-14 06:52:00,
2013-02-13 23:00:00,46.0,45.0,-100.00,NNW,328,4.0,-999.0,96,0.00,,,-99.99,,2013-02-14 07:00:00,
2013-02-13 23:21:00,46.0,45.0,-100.00,NNW,328,4.0,-999.0,96,0.00,,,-99.99,,2013-02-14 07:21:00,
2013-02-13 23:32:00,46.0,45.0,-100.00,NNW,328,4.0,-999.0,96,0.00,,,-99.99,,2013-02-14 07:32:00,
2013-02-13 23:42:00,46.0,45.0,-100.00,NNW,328,4.0,-999.0,96,0.00,,,-99.99,,2013-02-14 07:42:00,
2013-02-13 23:52:00,46.0,45.0,-100.00,NNW,328,4.0,-999.0,96,0.00,,,-99.99,,2013-02-14 07:52:00,